BEIDOU-3S IGSO-1S

Last updated on Sun Oct 26 2025 00:02:57 GMT+0000 (Coordinated Universal Time)

1 40549U 15019A 25297.52891953 -.00000131 00000+0 00000+0 0 9999 2 40549 49.6453 298.3029 0040504 197.6198 177.4401 1.00251575 38711
UTC large
Height (km)
Speed (km/s)
/
Latitude / Longitude
Inclination (degrees)
Orbital Period (minutes)
Azimuth
Elevation
Range (km)
Doppler Factor

Next 0 passes for location: London (51.5072 / 0.1276)

Sorry there are no passes over London.